Regional Weather Roundup
Issued by NWS

Home | Current Version | Previous Version | Text Only | Print | Product List | Glossary On
Versions: 1 2 3 4 5 6 7 8 9 10 11 12 13 14 15 16 17 18 19 20 21 22 23 24 25 26 27
000
ASUS45 KBOU 271907
RWRCO

WEATHER ROUNDUP FOR COLORADO
NATIONAL WEATHER SERVICE DENVER/BOULDER CO
100 PM MDT MON MAR 27 2017

NOTE: "FAIR" INDICATES FEW OR NO CLOUDS BELOW 12000 FEET WITH NO
SIGNIFICANT WEATHER AND/OR OBSTRUCTIONS TO VISIBILITY.

COZ001>005-013-030-031-272000-
...NORTHWEST COLORADO...

CITY           SKY/WX    TMP DP  RH WIND       PRES   REMARKS
CRAIG          FAIR      52  25  35 VRB6      29.86F
HAYDEN         CLOUDY    48  25  40 E6        29.87F
MEEKER         PTSUNNY   54  26  34 W7        29.85F
MOUNT WERNER   NOT AVBL
STEAMBOAT SPGS FAIR      49  26  39 CALM      29.88F
WALDEN         NOT AVBL
$$

COZ006>008-011-272000-
...WEST CENTRAL VALLEYS...

CITY           SKY/WX    TMP DP  RH WIND       PRES   REMARKS
GRAND JUNCTION CLOUDY    59  27  29 SW8       29.83F
MONTROSE       PTSUNNY   58  22  24 CALM      29.88F
EAGLE          PTSUNNY   54  19  26 W12G18    29.88F
RIFLE          FAIR      57  24  28 W10       29.84F
DELTA          FAIR      62  20  20 CALM      29.87F
NUCLA          CLOUDY    57  23  26 SW9G16    29.92F
$$

COZ017>023-064>068-272000-
...SOUTHWEST COLORADO...

CITY           SKY/WX    TMP DP  RH WIND       PRES   REMARKS
DURANGO        FAIR      55  23  28 S13       29.94F
CORTEZ         CLOUDY    59  27  29 SW16      29.90F
PAGOSA SPRINGS CLOUDY    50  22  33 S8        29.99F
TELLURIDE      CLOUDY    43  22  44 S13G26    29.99R
WOLF CREEK PAS FAIR      30  21  69 S22G33    30.09F WCI  17
$$

COZ009-010-012-014-032>034-037-058>063-272000-
...CENTRAL COLORADO...

CITY           SKY/WX    TMP DP  RH WIND       PRES   REMARKS
ASPEN          PTSUNNY   50  19  29 N7        29.87F
BUENA VISTA    PTSUNNY   55  18  24 SE12      29.89F
COPPER MTN     NOT AVBL
BERTHOUD PASS  CLOUDY    27  14  59 S9        30.03F WCI  17
COTTONWOOD PAS CLOUDY    46  18  31 E16G24    29.95F
GUNNISON       FAIR      49  21  33 VRB5      29.93F
KREMMLING      CLOUDY    55  23  28 W9G16     29.89F
LEADVILLE      CLOUDY    40  15  36 S17G23    29.93F
MONARCH PASS   CLOUDY    36  19  51 SW16G24   30.12F
SALIDA         PTSUNNY   55  24  30 SE9G20    29.97F
SUNLIGHT       CLOUDY    34  18  51 S10G21    30.02S WCI  26
WILKERSON PASS FAIR      39  19  45 SW7G21    30.03F
$$

COZ069>075-272000-
...SAN LUIS VALLEY/SANGRE DE CRISTO MOUNTAINS...

CITY           SKY/WX    TMP DP  RH WIND       PRES   REMARKS
ALAMOSA        CLOUDY    52  21  29 S17G25    29.93F
LA VETA PASS   NOT AVBL
SAGUACHE       PTSUNNY   50  25  37 S7G18     29.96F
$$

COZ035-036-038>040-272000-
...NORTHERN COLORADO FRONT RANGE...

CITY           SKY/WX    TMP DP  RH WIND       PRES   REMARKS
DENVER INTL AP FAIR      61  28  28 E12       29.85F
DMNS CITY PARK   N/A     61  31  31 NE10G20   29.85F
AURORA         MOSUNNY   57  28  31 S12       29.86F
FRONT RANGE AP MOSUNNY   63  30  29 E14G24    29.88F
ERIE MUNI ARPT FAIR      59  32  37 CALM      29.87F
BOULDER MUN AP CLOUDY    55  36  47 N5        29.87F
CENTENNIAL     FAIR      58  27  30 SE10G20   29.86F
BROOMFIELD     PTSUNNY   59  30  33 E5        29.87F
FORT COLLINS   FAIR      56  38  50 N3        29.88F
LONGMONT       CLOUDY    58  36  44 CALM      29.89F
$$

COZ041-046-047-076>085-087-088-272000-
...PIKES PEAK/PALMER DIVIDE AND SOUTHERN FOOTHILLS...

CITY           SKY/WX    TMP DP  RH WIND       PRES   REMARKS
COLO. SPRINGS  PTSUNNY   55  32  41 S16G23    29.92F
A. F. ACADEMY  CLOUDY    50  33  51 S12       29.91F
SCHRIEVER AFB  PTSUNNY   54  29  38 SE18G26   29.92F
ELLICOTT         N/A    N/A N/A N/A S14G23    29.91F
FALCON         PTSUNNY   51  29  42 S14G24    29.94F
FORT CARSON    PTSUNNY   56  33  41 S15       29.91F
LIMON          FAIR      57  33  40 S12G24    29.91F
MONUMENT HILL  PTSUNNY   46  32  57 S20G25    29.93F
TRINIDAD       FAIR      58  34  40 SE6       29.90F
$$

COZ042>045-048>051-090-091-272000-
...NORTHEAST COLORADO...

CITY           SKY/WX    TMP DP  RH WIND       PRES   REMARKS
GREELEY ARPT   FAIR      62  35  36 S9G18     29.88F
AKRON          FAIR      61  32  33 SE15      29.89F
BURLINGTON     FAIR      60  39  45 S12       29.91F
WRAY           FAIR      64  34  32 S7        29.90
STERLING       FAIR      61  41  48 SE5       29.86F
HOLYOKE        FAIR      64  34  32 S5        29.90F
FORT MORGAN    FAIR      64  30  27 SE14G21   29.88F
$$

COZ086-089-092>099-272000-
...SOUTHEAST COLORADO...

CITY           SKY/WX    TMP DP  RH WIND       PRES   REMARKS
PUEBLO         FAIR      61  38  42 SE15G24   29.88F
LA JUNTA       FAIR      65  36  34 SE17G24   29.89F
LAMAR          FAIR      64  35  34 SE8G16    29.89F
SPRINGFIELD      N/A     61  34  36 SE12G17   29.93F
$$




USA.gov is the U.S. government's official web portal to all federal, state and local government web resources and services.